Location: Dalton
(34.7700°N, 84.9700°W)
Time: 04:23:06
(UTC-05:00)

Tiangong 2 - Pass Details

Date: 07 October 2017
Orbit: 386 x 390 km, 42.8° (Epoch: 12 December)

Event Time Altitude Azimuth Distance (km) Brightness Sun altitude
Exits shadow 06:49:24 13° 236° (SW) 1,228 3.1 -11.1°
Maximum altitude 06:52:07 77° 150° (SSE) 404 1.2 -10.5°
Drops below altitude 10° 06:55:19 10° 65° (ENE) 1,423 5.1 -9.9°
Sets 06:57:25 0° 63° (ENE) 2,282 6.2 -9.4°
